Flag for U.S.A. Weather past 2 weeks in Redmond, Washington, U.S.A.

Now
68 °F

Clear.


Feels Like: 68 °F
Forecast: 64 / 91 °F
Wind: 3 mph from Northwest

Location: Seattle Boeing Field

Current Time: Jul 2, 2015 at 6:13:52 AM

Latest Report: Jul 2, 2015 at 5:53 AM


Visibility: 10 mi

Pressure: 30.00 "Hg

Humidity: 61%

Dew point: 54 °F

Location of RedmondLocation

Historic Weather in Redmond — Graph

°F

Redmond temperature yesterday

Maximum temperature yesterday: 88 °F (at 4:53 PM)
Minimum temperature yesterday: 65 °F (at 4:53 AM)
Average temperature yesterday: 77 °F

Past Weeks' High & Low Weather Summary

 TemperatureHumidityPressure
High92 °F (Jun 27, 4:53 PM)81% (Jun 19, 2:53 AM)30.16 "Hg (Jun 19, 2:53 AM)
Low56 °F (Jun 23, 5:53 AM)19% (Jun 23, 3:53 PM)29.88 "Hg (Jun 27, 8:53 PM)
Average72 °F49%30.03 "Hg
* Reported Jun 17 4:53 AM — Jul 2 4:53 AM, Redmond, Weather by CustomWeather, © 2015

Note: Actual official high and low records may vary slightly from our data, if they occured in-between our weather recording intervals... More about our weather records

Advertising

Redmond weather history for previous 24 hours

 ConditionsComfort  
Time TempWeatherWind HumidityBarometerVisibility
4:53 AM
Thu, Jul 2
68 °FClear.No wind59%29.98 "Hg10 mi
3:53 AM70 °FClear.3 mph55%29.98 "Hg10 mi
2:53 AM72 °FClear.3 mph53%29.97 "Hg10 mi
1:53 AM74 °FClear.No wind48%29.96 "Hg10 mi
12:53 AM75 °FClear.No wind48%29.96 "Hg10 mi
11:53 PM
Wed, Jul 1
78 °FClear.No wind43%29.96 "Hg10 mi
10:53 PM79 °FClear.5 mph42%29.96 "Hg10 mi
9:53 PM79 °FSunny.5 mph42%29.95 "Hg10 mi
8:53 PM82 °FSunny.5 mph40%29.93 "Hg10 mi
7:53 PM85 °FSunny.7 mph36%29.93 "Hg10 mi
6:53 PM86 °FSunny.8 mph36%29.93 "Hg10 mi
5:53 PM86 °FSunny.8 mph35%29.93 "Hg10 mi
4:53 PM88 °FSunny.9 mph31%29.94 "Hg10 mi
3:53 PM87 °FSunny.12 mph31%29.96 "Hg10 mi
2:53 PM81 °FSunny.9 mph39%29.97 "Hg10 mi
1:53 PM84 °FSunny.10 mph36%29.99 "Hg10 mi
12:53 PM82 °FSunny.7 mph38%30.00 "Hg10 mi
11:53 AM79 °FSunny.7 mph44%30.01 "Hg10 mi
10:53 AM76 °FSunny.7 mph48%30.02 "Hg10 mi
9:53 AM76 °FSunny.7 mph47%30.03 "Hg10 mi
8:53 AM75 °FSunny.7 mph48%30.04 "Hg10 mi
7:53 AM72 °FSunny.6 mph53%30.05 "Hg10 mi
6:53 AM67 °FSunny.No wind63%30.05 "Hg10 mi
Weather by CustomWeather, © 2015

See weather overviewHow to use our weather pages